Вернуться в каталог

DELTA 1 DEB

АктивенSSO
NORAD 26861·DEBRIS·🇺🇸 United States

Запущен Mar 5, 1978 с Vandenberg Space Force Base

Loading…

Ближайшие Пролёты (ближайшие 24 часа)

TLE

УстаревающийSource: Space-Track

Эпоха: Sep 10, 2026, 06:07 UTC

1 26861U 78026HV  26253.25524924  .00000113  00000-0  58184-4 0  9992
2 26861  98.8153 249.6217 0101393  98.5080 262.7608 14.29744206202843

Отслеживайте DELTA 1 DEB в реальном времени с AllMySat

Download on the App Store